Meteo pe oră la Abakumovo

Astăzi, 29 Iulie, Joi

Timp Temperatura Precipitaţii Vânt Presiune Umiditate
00:00 +18°C° 0 mm 4 m/s 743 mmHg 91%
01:00 +18°C° 0.1 mm 4 m/s 743 mmHg 92%
02:00 +18°C° 0.1 mm 4 m/s 742 mmHg 93%
03:00 +18°C° 0 mm 4 m/s 742 mmHg 92%
04:00 +18°C° 0.4 mm 4 m/s 742 mmHg 92%
05:00 +18°C° 0.4 mm 4 m/s 741 mmHg 92%
06:00 +18°C° 0.4 mm 4 m/s 741 mmHg 92%
07:00 +19°C° 0.4 mm 4 m/s 741 mmHg 88%
08:00 +21°C° 0.4 mm 4 m/s 741 mmHg 84%
09:00 +22°C° 0.4 mm 5 m/s 741 mmHg 80%
10:00 +25°C° 0 mm 5 m/s 741 mmHg 72%
11:00 +26°C° 0 mm 5 m/s 740 mmHg 64%
12:00 +28°C° 0 mm 5 m/s 740 mmHg 56%
13:00 +28°C° 0 mm 5 m/s 740 mmHg 55%
14:00 +28°C° 0 mm 5 m/s 740 mmHg 54%
15:00 +29°C° 0 mm 5 m/s 740 mmHg 52%
16:00 +28°C° 0 mm 4 m/s 740 mmHg 55%
17:00 +28°C° 0 mm 4 m/s 740 mmHg 58%
18:00 +27°C° 0 mm 3 m/s 740 mmHg 60%
19:00 +26°C° 0 mm 3 m/s 740 mmHg 63%
20:00 +25°C° 0 mm 2 m/s 740 mmHg 65%
21:00 +24°C° 0 mm 2 m/s 740 mmHg 68%
22:00 +24°C° 0 mm 2 m/s 740 mmHg 68%
23:00 +24°C° 0 mm 2 m/s 739 mmHg 68%

Mâine, 30 Iulie, Vineri

Timp Temperatura Precipitaţii Vânt Presiune Umiditate
00:00 +23°C° 0 mm 2 m/s 739 mmHg 68%
01:00 +23°C° 0 mm 2 m/s 739 mmHg 69%
02:00 +21°C° 0 mm 2 m/s 739 mmHg 71%
03:00 +21°C° 0 mm 2 m/s 740 mmHg 73%
04:00 +21°C° 0 mm 2 m/s 739 mmHg 74%
05:00 +21°C° 0 mm 2 m/s 739 mmHg 74%
06:00 +21°C° 0 mm 2 m/s 739 mmHg 75%
07:00 +23°C° 0 mm 2 m/s 739 mmHg 73%
08:00 +23°C° 0 mm 2 m/s 740 mmHg 70%
09:00 +24°C° 0 mm 2 m/s 740 mmHg 68%
10:00 +25°C° 0.1 mm 2 m/s 740 mmHg 67%
11:00 +26°C° 0.1 mm 2 m/s 739 mmHg 66%
12:00 +26°C° 0.1 mm 2 m/s 739 mmHg 65%
13:00 +27°C° 0.5 mm 3 m/s 739 mmHg 64%
14:00 +27°C° 0.5 mm 3 m/s 739 mmHg 64%
15:00 +28°C° 0.5 mm 4 m/s 738 mmHg 63%
16:00 +27°C° 0.1 mm 4 m/s 738 mmHg 64%
17:00 +27°C° 0.1 mm 5 m/s 739 mmHg 65%
18:00 +27°C° 0.1 mm 5 m/s 739 mmHg 67%
19:00 +25°C° 0 mm 4 m/s 739 mmHg 73%
20:00 +24°C° 0 mm 3 m/s 739 mmHg 78%
21:00 +21°C° 0 mm 2 m/s 739 mmHg 84%
22:00 +21°C° 0 mm 2 m/s 739 mmHg 86%
23:00 +20°C° 0 mm 2 m/s 739 mmHg 87%

Poimâine, 31 Iulie, Sâmbătă

Timp Temperatura Precipitaţii Vânt Presiune Umiditate
00:00 +19°C° 0 mm 3 m/s 739 mmHg 89%
01:00 +19°C° 0 mm 3 m/s 739 mmHg 88%
02:00 +19°C° 0 mm 3 m/s 739 mmHg 87%
03:00 +18°C° 0 mm 3 m/s 739 mmHg 86%
04:00 +18°C° 0 mm 3 m/s 739 mmHg 85%
05:00 +18°C° 0 mm 3 m/s 740 mmHg 83%
06:00 +18°C° 0 mm 3 m/s 740 mmHg 81%
07:00 +20°C° 0 mm 4 m/s 740 mmHg 72%
08:00 +22°C° 0 mm 5 m/s 740 mmHg 62%
09:00 +24°C° 0 mm 6 m/s 740 mmHg 53%
10:00 +26°C° 0 mm 6 m/s 740 mmHg 48%
11:00 +27°C° 0 mm 6 m/s 741 mmHg 43%
12:00 +28°C° 0 mm 6 m/s 741 mmHg 38%
13:00 +28°C° 0 mm 7 m/s 741 mmHg 37%
14:00 +29°C° 0 mm 7 m/s 741 mmHg 37%
15:00 +29°C° 0 mm 7 m/s 741 mmHg 36%
16:00 +29°C° 0 mm 7 m/s 741 mmHg 39%
17:00 +28°C° 0 mm 6 m/s 741 mmHg 42%
18:00 +28°C° 0 mm 5 m/s 741 mmHg 45%
19:00 +26°C° 0 mm 4 m/s 741 mmHg 50%
20:00 +24°C° 0 mm 3 m/s 741 mmHg 55%
21:00 +21°C° 0 mm 3 m/s 741 mmHg 60%
22:00 +21°C° 0 mm 3 m/s 742 mmHg 61%
23:00 +20°C° 0 mm 3 m/s 742 mmHg 63%

1 August, Duminică

Timp Temperatura Precipitaţii Vânt Presiune Umiditate
00:00 +20°C° 0 mm 3 m/s 742 mmHg 64%
01:00 +19°C° 0 mm 3 m/s 742 mmHg 66%
02:00 +19°C° 0 mm 3 m/s 743 mmHg 68%
03:00 +18°C° 0 mm 2 m/s 743 mmHg 70%
04:00 +18°C° 0 mm 2 m/s 743 mmHg 71%
05:00 +18°C° 0 mm 2 m/s 743 mmHg 71%
06:00 +18°C° 0 mm 2 m/s 743 mmHg 71%
07:00 +20°C° 0 mm 2 m/s 744 mmHg 65%
08:00 +23°C° 0 mm 2 m/s 744 mmHg 58%
09:00 +25°C° 0 mm 2 m/s 744 mmHg 52%
10:00 +27°C° 0 mm 3 m/s 744 mmHg 48%
11:00 +29°C° 0 mm 3 m/s 744 mmHg 44%
12:00 +30°C° 0 mm 4 m/s 744 mmHg 40%
13:00 +32°C° 0 mm 4 m/s 743 mmHg 37%
14:00 +33°C° 0 mm 5 m/s 743 mmHg 35%
15:00 +34°C° 0 mm 5 m/s 742 mmHg 32%
16:00 +34°C° 0 mm 5 m/s 742 mmHg 34%
17:00 +33°C° 0 mm 5 m/s 742 mmHg 35%
18:00 +33°C° 0 mm 4 m/s 741 mmHg 37%
19:00 +30°C° 0 mm 4 m/s 742 mmHg 41%
20:00 +28°C° 0 mm 3 m/s 742 mmHg 45%
21:00 +26°C° 0 mm 3 m/s 742 mmHg 49%
22:00 +25°C° 0 mm 3 m/s 742 mmHg 51%
23:00 +24°C° 0 mm 3 m/s 742 mmHg 53%

2 August, Luni

Timp Temperatura Precipitaţii Vânt Presiune Umiditate
00:00 +24°C° 0 mm 3 m/s 742 mmHg 55%
01:00 +22°C° 0.2 mm 3 m/s 742 mmHg 62%
02:00 +21°C° 0.2 mm 3 m/s 742 mmHg 69%
03:00 +20°C° 0.2 mm 3 m/s 742 mmHg 76%
04:00 +20°C° 0.2 mm 2 m/s 742 mmHg 77%
05:00 +20°C° 0.2 mm 2 m/s 742 mmHg 78%
06:00 +21°C° 0.2 mm 2 m/s 742 mmHg 79%
07:00 +23°C° 0 mm 2 m/s 742 mmHg 72%
08:00 +25°C° 0 mm 2 m/s 742 mmHg 65%
09:00 +27°C° 0 mm 2 m/s 742 mmHg 58%
10:00 +29°C° 0 mm 3 m/s 742 mmHg 53%
11:00 +31°C° 0 mm 3 m/s 741 mmHg 47%
12:00 +33°C° 0 mm 4 m/s 741 mmHg 42%
13:00 +34°C° 0 mm 4 m/s 741 mmHg 39%
14:00 +35°C° 0 mm 4 m/s 740 mmHg 35%
15:00 +35°C° 0 mm 4 m/s 740 mmHg 32%
16:00 +35°C° 0 mm 5 m/s 739 mmHg 34%
17:00 +34°C° 0 mm 5 m/s 739 mmHg 36%
18:00 +33°C° 0 mm 5 m/s 738 mmHg 37%
19:00 +30°C° 0 mm 4 m/s 738 mmHg 43%
20:00 +28°C° 0 mm 4 m/s 738 mmHg 48%
21:00 +26°C° 0 mm 3 m/s 738 mmHg 54%
22:00 +25°C° 0.1 mm 3 m/s 738 mmHg 57%
23:00 +24°C° 0.1 mm 3 m/s 738 mmHg 60%

3 August, Marţi

Timp Temperatura Precipitaţii Vânt Presiune Umiditate
00:00 +24°C° 0.1 mm 2 m/s 738 mmHg 63%
01:00 +23°C° 0.5 mm 2 m/s 738 mmHg 72%
02:00 +21°C° 0.5 mm 3 m/s 738 mmHg 81%
03:00 +20°C° 0.5 mm 3 m/s 738 mmHg 90%
04:00 +20°C° 0.1 mm 3 m/s 739 mmHg 90%
05:00 +20°C° 0.1 mm 4 m/s 739 mmHg 91%
06:00 +20°C° 0.1 mm 4 m/s 739 mmHg 91%
07:00 +20°C° 0 mm 5 m/s 739 mmHg 87%
08:00 +21°C° 0 mm 5 m/s 740 mmHg 83%
09:00 +21°C° 0 mm 6 m/s 740 mmHg 80%
10:00 +22°C° 0 mm 6 m/s 741 mmHg 73%
11:00 +22°C° 0 mm 6 m/s 741 mmHg 67%
12:00 +23°C° 0 mm 6 m/s 742 mmHg 60%
13:00 +23°C° 0 mm 6 m/s 742 mmHg 57%
14:00 +23°C° 0 mm 6 m/s 742 mmHg 54%
15:00 +23°C° 0 mm 5 m/s 742 mmHg 50%
16:00 +25°C° 0 mm 5 m/s 743 mmHg 49%
17:00 +25°C° 0 mm 5 m/s 743 mmHg 49%
18:00 +25°C° 0 mm 5 m/s 743 mmHg 48%
19:00 +22°C° 0 mm 4 m/s 744 mmHg 54%
20:00 +20°C° 0 mm 4 m/s 744 mmHg 60%
21:00 +19°C° 0 mm 4 m/s 745 mmHg 66%
22:00 +17°C° 0 mm 3 m/s 745 mmHg 74%
23:00 +16°C° 0 mm 3 m/s 745 mmHg 81%
Arată mai mult

Formular de consimțământ

Meteoprog și furnizorii noștri de servicii pot stoca și accesa date personale, precum cookies, identificatori de dispozitiv sau alte tehnologii similare pe dispozitivul dumneavoastră și procesa astfel de date pentru a personaliza conținutul și reclamele, dar și pentru a oferi caracteristici de social media și pentru a analiza traficul.

  • Stocarea și/sau accesarea informațiilor pe dispozitivul dumneavoastră

    Cookies, identificatori de dispozitiv sau alte informații pot fi stocate sau accesate pe dispozitiv în scopurile indicate mai sus.

  • Reclame și conținut personalizat, evaluarea reclamelor și a conținutului, informații despre audiențe și dezvoltarea produselor

    Reclamele și conținutul pot fi personalizate pe baza unui profil. Pot fi adăugate date suplimentare pentru a personaliza mai bine reclamele și conținutul. Performanța reclamelor și conținutului poate fi măsurată. Pot fi obținute informații despre utilizatorii care au văzut reclamele și conținutul. Aceste date pot fi utilizate pentru a dezvolta sau îmbunătăți experiența utilizatorilor, sistemele și software-ul.

Dând clic pe ‘Sunt de acord’, permiteți utilizarea cookie-urilor menționate, a identificatorilor de dispozitiv, balizelor web sau altor tehnologii similare. Setările pot fi modificate din browser-ul dispozitivului dumneavoastră.

În anumite scopuri, interesele legitime pot prima asupra consimțământului. Puteți citi mai multe informații în acest sens în Politica privind Confidențialitatea Datelor și Cookie.